sat.trackr.live / text

‹ back to catalog

STARLINK-34904

NORAD 65274 · 2025-184B

PAYLOAD ACTIVE UNKNOWN

§ Identity

Operator
Country
US
Launch date
2025-08-22
Launch site
AFWTR
Launch vehicle
Mass (kg)
RCS (m²)

Purposes: comms

External: N2YO · Heavens-Above · Gunter

§ Orbital elements

Epoch: 2026-05-25T03:35:54.519648Z

Period
95.63 min
Inclination
97.4503°
Eccentricity
0.0000655
Mean motion
15.05753457 rev/d
Perigee alt
548.7 km
Apogee alt
549.6 km
Semi-major
6,927.3 km
B*
3.6177e-3
RAAN
197.6236°
Arg perigee
66.1939°
Mean anomaly
293.9357°
Rev number
4,280

§ Raw data

STARLINK-349041 65274U 25184B   26145.14993657  .00052673  00000+0  36177-2 0  99942 65274  97.4503 197.6236 0000655  66.1939 293.9357 15.05753457 42802

JSON: /api/v1/satellites/65274 · /tle

For live sub-satellite position, see the globe view (requires WebGL).

§ Visibility from observer

Set your observer location to see the next 7 days of passes ≥ 10°. The values pass through the URL so the page stays shareable.

No JS? Fill the form by hand. The geolocation button needs JavaScript.